Terug naar catalogus

STARLINK-35623

ActiefCommunicatieVLEO
NORAD 66138·PAYLOAD·🇺🇸 United States

Gelanceerd Oct 22, 2025 vanaf Vandenberg Space Force Base

Loading…

Volgende Passages (komende 24 uur)

TLE

VersSource: CelesTrak SupGP

Epoch: Sep 15, 2026, 02:28 UTC

1 66138C 25237AA  26258.10326389 -.00037363  00000+0 -11037-2 0  2583
2 66138  53.1581 238.7070 0001374  90.1513   1.5369 15.34413569    16

Volg STARLINK-35623 in realtime met AllMySat

Download on the App Store